When you browse on this site, cookies collect data to enhance your experience and personalize the content and advertising you see.
Visit our Privacy Policy to learn more. By continuing to use the site, you agree to this use of cookies and data.
  • In Österreich
  • Länderverzeichnis
  • Für 7 Tage
  • Wassertemperatur
  • Wetterkarte
  • News
  • Widgets
  • user-avatar
    Anmelden

    Stündliche Wetter Nha Trang

    Heute, 5 April, Sonntag

    Zeit Temperatur Niederschläge Wind Luftdruck Luftfeuchtigkeit
    00:00 +26°C° 0.1 mm 2 m/S 749 mmHg 92%
    01:00 +26°C° 0 mm 1 m/S 749 mmHg 92%
    02:00 +26°C° 0.1 mm 1 m/S 749 mmHg 92%
    03:00 +25°C° 0.1 mm 2 m/S 749 mmHg 91%
    04:00 +25°C° 0.1 mm 2 m/S 748 mmHg 90%
    05:00 +26°C° 0.1 mm 2 m/S 749 mmHg 88%
    06:00 +26°C° 0.1 mm 2 m/S 749 mmHg 85%
    07:00 +27°C° 0 mm 2 m/S 749 mmHg 80%
    08:00 +29°C° 0.1 mm 3 m/S 750 mmHg 73%
    09:00 +31°C° 0.1 mm 3 m/S 750 mmHg 67%
    10:00 +33°C° 0.1 mm 3 m/S 750 mmHg 60%
    11:00 +34°C° 0 mm 3 m/S 749 mmHg 59%
    12:00 +34°C° 0 mm 4 m/S 749 mmHg 57%
    13:00 +34°C° 0 mm 4 m/S 748 mmHg 56%
    14:00 +34°C° 0 mm 4 m/S 748 mmHg 59%
    15:00 +33°C° 0 mm 4 m/S 747 mmHg 62%
    16:00 +32°C° 0 mm 4 m/S 747 mmHg 66%
    17:00 +30°C° 0 mm 4 m/S 747 mmHg 73%
    18:00 +28°C° 0 mm 3 m/S 748 mmHg 81%
    19:00 +27°C° 0 mm 2 m/S 748 mmHg 89%
    20:00 +27°C° 0.1 mm 2 m/S 749 mmHg 89%
    21:00 +26°C° 0.1 mm 2 m/S 749 mmHg 89%
    22:00 +26°C° 0.1 mm 2 m/S 750 mmHg 90%
    23:00 +26°C° 0.1 mm 2 m/S 750 mmHg 90%

    Morgen, 6 April, Montag

    Zeit Temperatur Niederschläge Wind Luftdruck Luftfeuchtigkeit
    00:00 +26°C° 0.1 mm 2 m/S 749 mmHg 90%
    01:00 +26°C° 0.1 mm 2 m/S 749 mmHg 90%
    02:00 +26°C° 0.2 mm 2 m/S 749 mmHg 90%
    03:00 +26°C° 0.2 mm 2 m/S 748 mmHg 89%
    04:00 +26°C° 0.2 mm 2 m/S 748 mmHg 89%
    05:00 +26°C° 0.1 mm 2 m/S 749 mmHg 87%
    06:00 +27°C° 0.1 mm 2 m/S 749 mmHg 85%
    07:00 +27°C° 0.1 mm 2 m/S 749 mmHg 83%
    08:00 +29°C° 0 mm 2 m/S 749 mmHg 74%
    09:00 +31°C° 0 mm 3 m/S 749 mmHg 65%
    10:00 +33°C° 0 mm 3 m/S 749 mmHg 55%
    11:00 +33°C° 0 mm 3 m/S 749 mmHg 53%
    12:00 +34°C° 0 mm 4 m/S 748 mmHg 51%
    13:00 +34°C° 0 mm 4 m/S 747 mmHg 49%
    14:00 +34°C° 0 mm 4 m/S 747 mmHg 53%
    15:00 +33°C° 0 mm 4 m/S 746 mmHg 56%
    16:00 +32°C° 0 mm 4 m/S 746 mmHg 60%
    17:00 +30°C° 0 mm 3 m/S 746 mmHg 68%
    18:00 +28°C° 0 mm 2 m/S 747 mmHg 77%
    19:00 +26°C° 0 mm 2 m/S 747 mmHg 85%
    20:00 +26°C° 0 mm 2 m/S 748 mmHg 86%
    21:00 +26°C° 0 mm 1 m/S 748 mmHg 87%
    22:00 +25°C° 0 mm 1 m/S 748 mmHg 88%
    23:00 +25°C° 0 mm 1 m/S 748 mmHg 88%

    übermorgen, 7 April, Dienstag

    Zeit Temperatur Niederschläge Wind Luftdruck Luftfeuchtigkeit
    00:00 +25°C° 0 mm 2 m/S 748 mmHg 88%
    01:00 +25°C° 0 mm 2 m/S 748 mmHg 88%
    02:00 +25°C° 0 mm 2 m/S 748 mmHg 88%
    03:00 +24°C° 0 mm 2 m/S 747 mmHg 87%
    04:00 +24°C° 0 mm 2 m/S 747 mmHg 86%
    05:00 +25°C° 0 mm 2 m/S 747 mmHg 83%
    06:00 +26°C° 0 mm 2 m/S 748 mmHg 79%
    07:00 +27°C° 0 mm 2 m/S 749 mmHg 75%
    08:00 +29°C° 0 mm 2 m/S 749 mmHg 68%
    09:00 +31°C° 0 mm 2 m/S 749 mmHg 62%
    10:00 +34°C° 0 mm 2 m/S 749 mmHg 55%
    11:00 +34°C° 0 mm 3 m/S 748 mmHg 57%
    12:00 +34°C° 0 mm 4 m/S 747 mmHg 60%
    13:00 +34°C° 0 mm 4 m/S 747 mmHg 62%
    14:00 +33°C° 0.3 mm 3 m/S 746 mmHg 68%
    15:00 +30°C° 0.3 mm 3 m/S 746 mmHg 73%
    16:00 +29°C° 0.3 mm 2 m/S 745 mmHg 78%
    17:00 +29°C° 0.3 mm 2 m/S 746 mmHg 81%
    18:00 +28°C° 0.3 mm 1 m/S 746 mmHg 84%
    19:00 +27°C° 0.3 mm 1 m/S 747 mmHg 86%
    20:00 +27°C° 0.1 mm 1 m/S 747 mmHg 86%
    21:00 +27°C° 0.1 mm 1 m/S 748 mmHg 86%
    22:00 +27°C° 0.1 mm 1 m/S 748 mmHg 86%
    23:00 +25°C° 0 mm 0 m/S 748 mmHg 86%

    8 April, Mittwoch

    Zeit Temperatur Niederschläge Wind Luftdruck Luftfeuchtigkeit
    00:00 +25°C° 0 mm 0 m/S 748 mmHg 85%
    01:00 +25°C° 0 mm 0 m/S 747 mmHg 85%
    02:00 +25°C° 0 mm 0 m/S 747 mmHg 85%
    03:00 +24°C° 0 mm 0 m/S 747 mmHg 86%
    04:00 +24°C° 0 mm 0 m/S 747 mmHg 86%
    05:00 +25°C° 0 mm 0 m/S 747 mmHg 85%
    06:00 +25°C° 0 mm 0 m/S 748 mmHg 83%
    07:00 +26°C° 0 mm 0 m/S 748 mmHg 82%
    08:00 +29°C° 0 mm 1 m/S 748 mmHg 74%
    09:00 +31°C° 0 mm 2 m/S 749 mmHg 67%
    10:00 +32°C° 0 mm 2 m/S 749 mmHg 59%
    11:00 +33°C° 0.1 mm 3 m/S 748 mmHg 59%
    12:00 +33°C° 0.1 mm 3 m/S 748 mmHg 60%
    13:00 +33°C° 0.1 mm 3 m/S 747 mmHg 60%
    14:00 +31°C° 0.1 mm 3 m/S 747 mmHg 61%
    15:00 +31°C° 0.1 mm 3 m/S 746 mmHg 62%
    16:00 +31°C° 0.1 mm 3 m/S 746 mmHg 64%
    17:00 +30°C° 0 mm 2 m/S 747 mmHg 68%
    18:00 +29°C° 0 mm 2 m/S 747 mmHg 72%
    19:00 +28°C° 0 mm 1 m/S 747 mmHg 76%
    20:00 +27°C° 0 mm 1 m/S 748 mmHg 78%
    21:00 +27°C° 0 mm 1 m/S 748 mmHg 79%
    22:00 +26°C° 0 mm 1 m/S 749 mmHg 81%
    23:00 +26°C° 0 mm 1 m/S 748 mmHg 83%

    9 April, Donnerstag

    Zeit Temperatur Niederschläge Wind Luftdruck Luftfeuchtigkeit
    00:00 +26°C° 0 mm 1 m/S 748 mmHg 84%
    01:00 +25°C° 0 mm 1 m/S 748 mmHg 85%
    02:00 +25°C° 0 mm 1 m/S 748 mmHg 86%
    03:00 +25°C° 0 mm 1 m/S 747 mmHg 87%
    04:00 +25°C° 0 mm 1 m/S 747 mmHg 88%
    05:00 +25°C° 0 mm 1 m/S 748 mmHg 85%
    06:00 +26°C° 0 mm 1 m/S 748 mmHg 82%
    07:00 +27°C° 0 mm 1 m/S 749 mmHg 79%
    08:00 +28°C° 0 mm 1 m/S 749 mmHg 71%
    09:00 +30°C° 0 mm 2 m/S 749 mmHg 63%
    10:00 +32°C° 0 mm 2 m/S 749 mmHg 54%
    11:00 +32°C° 0 mm 2 m/S 749 mmHg 53%
    12:00 +34°C° 0 mm 3 m/S 748 mmHg 52%
    13:00 +34°C° 0 mm 4 m/S 747 mmHg 51%
    14:00 +33°C° 0 mm 4 m/S 747 mmHg 56%
    15:00 +33°C° 0 mm 4 m/S 747 mmHg 60%
    16:00 +32°C° 0 mm 4 m/S 746 mmHg 64%
    17:00 +29°C° 0 mm 3 m/S 747 mmHg 71%
    18:00 +28°C° 0 mm 3 m/S 747 mmHg 77%
    19:00 +27°C° 0 mm 2 m/S 748 mmHg 84%
    20:00 +27°C° 0 mm 2 m/S 748 mmHg 86%
    21:00 +26°C° 0 mm 2 m/S 749 mmHg 87%
    22:00 +26°C° 0 mm 2 m/S 749 mmHg 88%
    23:00 +26°C° 0 mm 2 m/S 749 mmHg 89%

    10 April, Freitag

    Zeit Temperatur Niederschläge Wind Luftdruck Luftfeuchtigkeit
    00:00 +26°C° 0 mm 2 m/S 749 mmHg 90%
    01:00 +25°C° 0 mm 2 m/S 748 mmHg 90%
    02:00 +25°C° 0 mm 2 m/S 748 mmHg 90%
    03:00 +25°C° 0 mm 2 m/S 748 mmHg 89%
    04:00 +25°C° 0 mm 2 m/S 748 mmHg 89%
    05:00 +26°C° 0 mm 2 m/S 749 mmHg 85%
    06:00 +27°C° 0 mm 2 m/S 749 mmHg 81%
    07:00 +28°C° 0 mm 2 m/S 749 mmHg 77%
    08:00 +29°C° 0 mm 2 m/S 749 mmHg 70%
    09:00 +31°C° 0 mm 2 m/S 750 mmHg 63%
    10:00 +34°C° 0 mm 2 m/S 750 mmHg 56%
    11:00 +34°C° 0 mm 3 m/S 749 mmHg 56%
    12:00 +34°C° 0 mm 3 m/S 748 mmHg 56%
    13:00 +34°C° 0 mm 4 m/S 747 mmHg 56%
    14:00 +34°C° 0 mm 4 m/S 747 mmHg 60%
    15:00 +33°C° 0 mm 4 m/S 747 mmHg 64%
    16:00 +32°C° 0 mm 4 m/S 746 mmHg 67%
    17:00 +30°C° 0 mm 3 m/S 747 mmHg 74%
    18:00 +29°C° 0 mm 2 m/S 747 mmHg 81%
    19:00 +27°C° 0 mm 2 m/S 748 mmHg 87%
    20:00 +27°C° 0.1 mm 2 m/S 748 mmHg 88%
    21:00 +27°C° 0.1 mm 1 m/S 749 mmHg 89%
    22:00 +27°C° 0.1 mm 1 m/S 749 mmHg 90%
    23:00 +27°C° 0 mm 1 m/S 749 mmHg 90%
    Mehr zeigen